Location: Newark
(41.7563°N, 42.8282°E)
Time: 00:46:11
(UTC+00:00)

OTV 5 (USA 277) - Visible Passes

Search period start: 22 October 2019 00:00
Search period end: 01 November 2019 00:00
Orbit: 310 x 324 km, 54.5° (Epoch: 17 October)

Date Brightness Start Highest point End Pass type
(mag) Time Alt. Az. Time Alt. Az. Time Alt. Az.
22 Oct ? 02:32:49 11° SW 02:32:49 11° SW 02:33:13 10° SW visible
27 Oct ? 15:20:52 10° S 15:22:12 16° SE 15:22:12 16° SE visible
28 Oct ? 15:34:30 10° SSW 15:36:51 46° SSE 15:36:51 46° SSE visible
29 Oct ? 15:49:00 10° WSW 15:51:22 49° WNW 15:51:22 49° WNW visible
30 Oct ? 16:04:05 10° W 16:05:46 21° NW 16:05:46 21° NW visible
31 Oct ? 14:43:46 10° SW 14:46:29 88° SE 14:49:09 11° NE visible
31 Oct ? 16:19:46 10° NW 16:20:03 11° NW 16:20:03 11° NW visible
